Location: Claremont
(33.9858°S, 18.4575°E)
Time: 03:17:36
(UTC+00:00)

Tiangong - Visible Passes

Search period start: 30 November 2022 00:00
Search period end: 10 December 2022 00:00
Orbit: 385 x 393 km, 41.5° (Epoch: 29 November)

Date Brightness Start Highest point End Pass type
(mag) Time Alt. Az. Time Alt. Az. Time Alt. Az.
02 Dec 0.5 02:02:12 10° NNE 02:03:19 11° NE 02:04:25 10° ENE visible
03 Dec -1.3 02:39:01 13° NW 02:41:41 44° NNE 02:44:49 10° ESE visible
04 Dec -0.5 01:43:27 23° NNE 01:43:33 23° NE 01:46:12 10° E visible
05 Dec -2.1 02:20:04 22° WNW 02:21:59 88° SSW 02:25:16 10° ESE visible
06 Dec -1.1 01:24:19 41° ENE 01:24:19 41° ENE 01:26:51 10° ESE visible
07 Dec -1.4 02:00:45 26° W 02:02:13 48° SSW 02:05:24 10° SE visible
08 Dec -0.7 01:04:51 38° ESE 01:04:51 38° ESE 01:07:01 10° ESE visible
08 Dec -0.1 02:38:13 10° WSW 02:40:58 24° S 02:43:44 10° SE visible
09 Dec -0.5 01:41:09 23° SW 01:42:21 31° SSW 01:45:19 10° SE visible
